Weather in Tortuguero

Costa Rica     10°32′32″N   83°30′10″W
temp.,
°C
wind,
m/s
gust,
m/s
humid.,
%
clouds,
%
prec.,
mm/h
press.,
hPa
HPBL,
m
16 may, sun
sun1600:00+25ese1286100 0.2 1013343
03:00+24s119021 0.1 1012130
06:00+23sw1193100 0.3 101385
09:00+28ese2371100 0.0 1014778
12:00+29ene336629 0.0 1013932
15:00+28ene347023 0.0 1011950
18:00+26ene238418 0.1 1012322
21:00+25ene128699 0.3 1014305
17 may, mon
mon1700:00+24wsw018993 0.8 101362
03:00+24wsw119114 0.3 101145
06:00+23sw119388 0.3 101373
09:00+28e12714 0.1 1014711
12:00+29ene33699 0.1 1012941
15:00+28ene336911 0.0 1010841
18:00+25ne22825 0.0 1012324
21:00+25e128565 0.0 1013339
18 may, tue
tue1800:00+24wsw119092 0.1 101391
03:00+23wsw119499 0.1 101260
06:00+23wnw119394 0.1 101390
09:00+28ne117262 0.1 1014779
12:00+29ne326737 0.1 10121028
15:00+28ne346536 0.0 1010742
18:00+26ne228369 0.0 1011284
21:00+25sse128899 0.9 101391
19 may, wed
wed1900:00+24sw1191100 1.5 1012109
03:00+23sw119429 0.0 101096
06:00+24wsw11937 0.0 101276
09:00+29nne116919 0.0 1012819
12:00+28ne336941 0.1 1011650
15:00+29ne44683 0.0 1008769
18:00+26ene228422 0.0 1009269
21:00+25e118716 0.1 1011265
20 may, thu
thu2000:00+25s01906 0.1 1010110
03:00+24wsw119421 0.0 100955
06:00+24w239427 0.1 1011121
09:00+29nne116925 0.1 1011828
12:00+29ne336813 0.1 1010950
15:00+29nne44671 0.0 1007707
18:00+26nne228316 0.0 1009248
21:00+26nw018868 0.0 101073